ETD236 LFPG-OMAA

Flight info

Callsign ETD236
Flight time N/A
Altitude 37000
Route RANUX DCT VALEK DCT LIPNI DCT EXCOS DCT KRH DCT UTABA DCT BEMKI DCT ELMEM DCT DIRAB DCT VESAL DCT VAKSU DCT PINDO DCT VEXOL UG802 IMR UN135 BALSU/N0480F390 UN135 NESIL UT39 TOMBI DCT BALMA UR655 CAK UN310 LATEB N310 BASEM R785 RASLI P559 TRF R23 NEVOL N318 TAMRO T503 KSA N687 KINIB Z511 GISRA L681 ORLEK DCT KUPRO/N0475F350 N300 KAXOB Q415 UKILI
Aircraft A388/J-SADE2E3FGHIJ3J4J5M1RWXY/LB1D1

Departure

Time 2026-05-08 08:47
Airport Charles de Gaulle International Airport (LFPG)

Arrival

Time N/A
Airport Zayed International Airport (OMAA)
Time Latitude Longitude Altitude Speed Heading
2026-05-08 08:39 49.01702 2.54597 359 ft 0 kts 307°
2026-05-08 08:39 49.01707 2.54586 359 ft 4 kts 307°
2026-05-08 08:39 49.01732 2.54534 368 ft 8 kts 303°
2026-05-08 08:39 49.01770 2.54446 366 ft 12 kts 303°
2026-05-08 08:40 49.01806 2.54327 362 ft 11 kts 282°
2026-05-08 08:40 49.01816 2.54205 366 ft 11 kts 287°
2026-05-08 08:40 49.01868 2.54109 368 ft 13 kts 310°
2026-05-08 08:40 49.01894 2.53972 364 ft 15 kts 270°
2026-05-08 08:41 49.01884 2.53795 362 ft 18 kts 264°
2026-05-08 08:41 49.01871 2.53589 363 ft 21 kts 264°
2026-05-08 08:41 49.01856 2.53366 361 ft 21 kts 264°
2026-05-08 08:41 49.01844 2.53133 367 ft 23 kts 266°
2026-05-08 08:42 49.01836 2.52926 359 ft 13 kts 266°
2026-05-08 08:42 49.01830 2.52819 367 ft 12 kts 265°
2026-05-08 08:42 49.01821 2.52669 364 ft 16 kts 264°
2026-05-08 08:42 49.01810 2.52483 363 ft 19 kts 265°
2026-05-08 08:43 49.01856 2.52345 365 ft 12 kts 341°
2026-05-08 08:43 49.01889 2.52300 367 ft 6 kts 277°
2026-05-08 08:43 49.01887 2.52209 366 ft 11 kts 265°
2026-05-08 08:43 49.01878 2.52071 365 ft 15 kts 264°
2026-05-08 08:44 49.01868 2.51893 364 ft 18 kts 266°
2026-05-08 08:44 49.01857 2.51694 365 ft 19 kts 265°
2026-05-08 08:44 49.01847 2.51504 363 ft 18 kts 266°
2026-05-08 08:44 49.01847 2.51336 364 ft 15 kts 290°
2026-05-08 08:45 49.01897 2.51260 365 ft 9 kts 343°
2026-05-08 08:45 49.01961 2.51256 364 ft 10 kts 20°
2026-05-08 08:45 49.02018 2.51320 367 ft 11 kts 48°
2026-05-08 08:45 49.02063 2.51418 366 ft 12 kts 68°
2026-05-08 08:46 49.02072 2.51479 362 ft 0 kts 84°
2026-05-08 08:46 49.02075 2.51520 365 ft 22 kts 85°
2026-05-08 08:46 49.02109 2.52156 363 ft 95 kts 85°
2026-05-08 08:46 49.02176 2.53441 365 ft 145 kts 86°
2026-05-08 08:47 49.02262 2.55109 492 ft 162 kts 85°
2026-05-08 08:47 49.02355 2.56790 1014 ft 160 kts 84°
2026-05-08 08:47 49.02467 2.58473 1537 ft 160 kts 85°
2026-05-08 08:47 49.02568 2.60220 1852 ft 171 kts 85°
2026-05-08 08:48 49.02661 2.62086 2077 ft 181 kts 85°
2026-05-08 08:48 49.02759 2.64050 2254 ft 193 kts 85°
2026-05-08 08:48 49.02867 2.66188 2394 ft 210 kts 85°
2026-05-08 08:48 49.02983 2.68489 2554 ft 230 kts 85°
2026-05-08 08:49 49.03108 2.71005 2926 ft 249 kts 85°
2026-05-08 08:49 49.03239 2.73708 3563 ft 258 kts 86°
2026-05-08 08:49 49.03373 2.76442 4363 ft 260 kts 85°
2026-05-08 08:49 49.03507 2.79225 5126 ft 266 kts 85°
2026-05-08 08:50 49.03647 2.82060 5885 ft 271 kts 85°
2026-05-08 08:50 49.03786 2.84951 6646 ft 276 kts 85°
2026-05-08 08:50 49.03926 2.87881 7327 ft 282 kts 85°
2026-05-08 08:50 49.04070 2.90893 8026 ft 289 kts 85°
2026-05-08 08:51 49.04215 2.93952 8847 ft 290 kts 85°
2026-05-08 08:51 49.04416 2.97019 9628 ft 294 kts 83°
2026-05-08 08:51 49.04661 3.00128 10326 ft 298 kts 83°
2026-05-08 08:51 49.04918 3.03368 10592 ft 318 kts 83°
2026-05-08 08:52 49.05182 3.06806 10778 ft 337 kts 84°
2026-05-08 08:52 49.05453 3.10429 11123 ft 349 kts 84°
2026-05-08 08:52 49.05724 3.14127 11756 ft 353 kts 84°
2026-05-08 08:52 49.05995 3.17863 12383 ft 356 kts 85°
2026-05-08 08:53 49.06266 3.21640 13007 ft 360 kts 85°
2026-05-08 08:53 49.06539 3.25455 13619 ft 364 kts 85°
2026-05-08 08:53 49.06813 3.29307 14212 ft 367 kts 85°
2026-05-08 08:53 49.07086 3.33160 14779 ft 370 kts 85°
2026-05-08 08:54 49.07361 3.37066 15333 ft 372 kts 85°
2026-05-08 08:54 49.07638 3.41007 15911 ft 375 kts 85°
2026-05-08 08:54 49.07916 3.44985 16461 ft 378 kts 85°
2026-05-08 08:54 49.08194 3.48986 17006 ft 381 kts 85°
2026-05-08 08:55 49.08473 3.53015 17512 ft 384 kts 85°
2026-05-08 08:55 49.08748 3.57020 18086 ft 386 kts 85°
2026-05-08 08:55 49.09030 3.61157 18571 ft 389 kts 85°
2026-05-08 08:55 49.09306 3.65219 19003 ft 391 kts 85°
2026-05-08 08:56 49.09585 3.69364 19453 ft 394 kts 86°
2026-05-08 08:56 49.09866 3.73546 19881 ft 397 kts 86°
2026-05-08 08:56 49.10146 3.77750 20332 ft 400 kts 86°
2026-05-08 08:56 49.10428 3.81989 20766 ft 403 kts 86°
2026-05-08 08:57 49.10709 3.86256 21182 ft 405 kts 86°
2026-05-08 08:57 49.10991 3.90550 21612 ft 408 kts 86°
2026-05-08 08:57 49.11271 3.94844 22031 ft 411 kts 86°
2026-05-08 08:57 49.11553 3.99196 22437 ft 414 kts 86°
2026-05-08 08:58 49.11836 4.03584 22852 ft 416 kts 86°
2026-05-08 08:58 49.12118 4.07986 23250 ft 419 kts 86°
2026-05-08 08:58 49.12401 4.12432 23648 ft 422 kts 86°
2026-05-08 08:58 49.12685 4.16906 23997 ft 425 kts 86°
2026-05-08 08:59 49.12968 4.21402 24361 ft 427 kts 86°
2026-05-08 08:59 49.13250 4.25923 24698 ft 429 kts 86°
2026-05-08 08:59 49.13533 4.30472 25053 ft 431 kts 86°
2026-05-08 08:59 49.13960 4.35024 25401 ft 435 kts 79°
2026-05-08 09:00 49.14797 4.39483 25760 ft 439 kts 71°
2026-05-08 09:00 49.15968 4.43809 26124 ft 442 kts 68°
2026-05-08 09:00 49.17164 4.48151 26497 ft 445 kts 68°
2026-05-08 09:00 49.18354 4.52540 26903 ft 448 kts 69°
2026-05-08 09:01 49.19542 4.56950 27331 ft 451 kts 69°
2026-05-08 09:01 49.20740 4.61396 27734 ft 454 kts 69°
2026-05-08 09:01 49.21945 4.65871 28192 ft 456 kts 69°
2026-05-08 09:01 49.23154 4.70366 28599 ft 459 kts 69°
2026-05-08 09:02 49.24371 4.74898 29008 ft 462 kts 69°
2026-05-08 09:02 49.25593 4.79458 29416 ft 465 kts 69°
2026-05-08 09:02 49.26826 4.84067 29836 ft 468 kts 69°
2026-05-08 09:02 49.28062 4.88696 30240 ft 472 kts 69°
2026-05-08 09:03 49.29303 4.93354 30642 ft 473 kts 69°
2026-05-08 09:03 49.30550 4.98041 31006 ft 476 kts 69°
2026-05-08 09:03 49.31801 5.02752 31372 ft 479 kts 69°
2026-05-08 09:03 49.33055 5.07489 31742 ft 481 kts 69°
2026-05-08 09:04 49.34316 5.12259 32099 ft 484 kts 69°
2026-05-08 09:04 49.35583 5.17063 32454 ft 487 kts 69°
2026-05-08 09:04 49.36853 5.21888 32819 ft 489 kts 69°
2026-05-08 09:04 49.38130 5.26748 33165 ft 492 kts 69°
2026-05-08 09:05 49.39411 5.31636 33517 ft 495 kts 69°
2026-05-08 09:05 49.40697 5.36552 33863 ft 498 kts 69°
2026-05-08 09:05 49.41988 5.41497 34173 ft 501 kts 69°
2026-05-08 09:05 49.43285 5.46480 34454 ft 504 kts 69°
2026-05-08 09:06 49.44590 5.51501 34774 ft 506 kts 69°
2026-05-08 09:06 49.45893 5.56527 35138 ft 507 kts 69°
2026-05-08 09:06 49.47196 5.61563 35520 ft 507 kts 69°
2026-05-08 09:06 49.47617 5.63195 35636 ft 507 kts 69°
2026-05-08 09:07 49.48250 5.65646 35820 ft 507 kts 69°
2026-05-08 09:07 49.49548 5.70682 36184 ft 508 kts 69°
2026-05-08 09:07 49.50846 5.75730 36561 ft 508 kts 69°
2026-05-08 09:08 49.52125 5.80799 36920 ft 509 kts 72°
2026-05-08 09:08 49.53050 5.86060 37110 ft 512 kts 80°
2026-05-08 09:08 49.53872 5.96875 37099 ft 509 kts 85°
2026-05-08 09:09 49.54603 6.07738 37101 ft 511 kts 85°
2026-05-08 09:09 49.55346 6.18620 37102 ft 511 kts 85°
2026-05-08 09:10 49.56079 6.29573 37091 ft 511 kts 85°
2026-05-08 09:10 49.56759 6.40397 37095 ft 511 kts 89°
2026-05-08 09:11 49.55971 6.51179 37099 ft 506 kts 108°
2026-05-08 09:11 49.53468 6.61251 37095 ft 503 kts 114°
2026-05-08 09:12 49.50840 6.71248 37094 ft 504 kts 114°
2026-05-08 09:12 49.48202 6.81231 37090 ft 504 kts 114°
2026-05-08 09:13 49.45547 6.91211 37092 ft 505 kts 114°
2026-05-08 09:13 49.42879 7.01187 37100 ft 505 kts 115°
2026-05-08 09:14 49.40201 7.11157 37103 ft 505 kts 115°
2026-05-08 09:14 49.37515 7.21116 37095 ft 505 kts 115°
2026-05-08 09:15 49.34820 7.31064 37099 ft 505 kts 115°
2026-05-08 09:15 49.32116 7.41005 37106 ft 505 kts 115°
2026-05-08 09:16 49.29402 7.50939 37106 ft 505 kts 115°
2026-05-08 09:16 49.26680 7.60859 37107 ft 505 kts 115°
2026-05-08 09:17 49.24397 7.69150 37103 ft 505 kts 115°
2026-05-08 09:17 49.21680 7.78978 37106 ft 505 kts 115°
2026-05-08 09:18 49.18937 7.88860 37110 ft 505 kts 115°
2026-05-08 09:18 49.16185 7.98727 37098 ft 505 kts 115°
2026-05-08 09:19 49.13427 8.08580 37104 ft 504 kts 115°
2026-05-08 09:19 49.10660 8.18421 37097 ft 504 kts 115°
2026-05-08 09:20 49.07896 8.28216 37097 ft 504 kts 116°
2026-05-08 09:20 49.05116 8.38025 37095 ft 504 kts 116°
2026-05-08 09:21 49.02327 8.47824 37092 ft 504 kts 116°
2026-05-08 09:22 48.88825 8.71054 37092 ft 493 kts 144°
2026-05-08 09:23 48.86138 8.74298 37091 ft 493 kts 144°
2026-05-08 09:23 48.80778 8.80753 37092 ft 493 kts 144°
2026-05-08 09:24 48.75404 8.87198 37095 ft 493 kts 144°
2026-05-08 09:24 48.70018 8.93636 37082 ft 493 kts 144°
2026-05-08 09:25 48.64638 9.00049 37082 ft 493 kts 144°
2026-05-08 09:25 48.59251 9.06452 37085 ft 493 kts 144°
2026-05-08 09:26 48.53856 9.12846 37075 ft 493 kts 144°
2026-05-08 09:26 48.48462 9.19222 37081 ft 493 kts 144°
2026-05-08 09:27 48.43066 9.25582 37085 ft 493 kts 144°
2026-05-08 09:27 48.37662 9.31934 37074 ft 493 kts 144°
2026-05-08 09:28 48.32261 9.38265 37075 ft 492 kts 145°
2026-05-08 09:28 48.26858 9.44581 37079 ft 492 kts 145°
2026-05-08 09:29 48.21504 9.50985 37059 ft 493 kts 143°
2026-05-08 09:29 48.16225 9.57558 37065 ft 493 kts 143°
2026-05-08 09:30 48.10929 9.64092 37068 ft 494 kts 143°
2026-05-08 09:30 48.05611 9.70607 37070 ft 494 kts 143°
2026-05-08 09:31 48.00289 9.77104 37067 ft 494 kts 144°
2026-05-08 09:31 47.94952 9.83599 37070 ft 495 kts 144°
2026-05-08 09:32 47.89615 9.90079 37079 ft 495 kts 144°
2026-05-08 09:32 47.84265 9.96556 37084 ft 496 kts 144°
2026-05-08 09:33 47.78913 10.03018 37054 ft 496 kts 144°
2026-05-08 09:33 47.73562 10.09463 37057 ft 495 kts 144°
2026-05-08 09:34 47.68209 10.15890 37054 ft 494 kts 145°
2026-05-08 09:34 47.62857 10.22300 37049 ft 494 kts 145°
2026-05-08 09:35 47.57506 10.28690 37043 ft 494 kts 145°
2026-05-08 09:35 47.51952 10.34450 37050 ft 489 kts 151°
2026-05-08 09:36 47.46224 10.40004 37040 ft 489 kts 151°
2026-05-08 09:36 47.40586 10.45476 37024 ft 488 kts 151°
2026-05-08 09:37 47.34918 10.50953 37056 ft 487 kts 151°
2026-05-08 09:37 47.29243 10.56421 37060 ft 486 kts 151°
2026-05-08 09:38 47.23664 10.62081 37047 ft 488 kts 148°
2026-05-08 09:38 47.18181 10.67941 37038 ft 488 kts 148°
2026-05-08 09:39 47.12667 10.73753 37045 ft 487 kts 148°
2026-05-08 09:39 47.07155 10.79515 37044 ft 487 kts 149°
2026-05-08 09:40 47.01628 10.85272 37067 ft 489 kts 149°
2026-05-08 09:40 46.96067 10.91047 37099 ft 491 kts 149°
2026-05-08 09:41 46.90495 10.96822 37106 ft 491 kts 149°
2026-05-08 09:41 46.84913 11.02588 37108 ft 491 kts 149°
2026-05-08 09:42 46.79608 11.08924 37112 ft 497 kts 139°
2026-05-08 09:42 46.74885 11.16329 37104 ft 499 kts 137°
2026-05-08 09:43 46.70153 11.23705 37100 ft 498 kts 137°
2026-05-08 09:43 46.65415 11.31056 37079 ft 497 kts 137°
2026-05-08 09:44 46.60691 11.38359 37039 ft 495 kts 137°
2026-05-08 09:44 46.55971 11.45645 37048 ft 495 kts 138°
2026-05-08 09:45 46.51247 11.52906 37051 ft 495 kts 138°
2026-05-08 09:45 46.46503 11.60176 37065 ft 497 kts 138°
2026-05-08 09:46 46.41769 11.67408 37070 ft 498 kts 138°
2026-05-08 09:46 46.37127 11.74881 37077 ft 502 kts 134°
2026-05-08 09:47 46.32688 11.82687 37091 ft 502 kts 134°
2026-05-08 09:47 46.28236 11.90493 37100 ft 504 kts 134°
2026-05-08 09:48 46.23765 11.98304 37091 ft 504 kts 134°
2026-05-08 09:48 46.19311 12.06093 37105 ft 502 kts 134°
2026-05-08 09:49 46.14866 12.13834 37082 ft 500 kts 134°
2026-05-08 09:49 46.10422 12.21541 37076 ft 499 kts 134°
2026-05-08 09:50 46.05982 12.29213 37079 ft 498 kts 134°
2026-05-08 09:50 46.01560 12.36832 37065 ft 498 kts 134°
2026-05-08 09:51 45.97105 12.44488 37059 ft 497 kts 135°
2026-05-08 09:51 45.92666 12.52096 37057 ft 497 kts 135°
2026-05-08 09:52 45.88226 12.59684 37050 ft 496 kts 135°
2026-05-08 09:52 45.83786 12.67253 37047 ft 495 kts 135°
2026-05-08 09:53 45.79754 12.74106 37074 ft 497 kts 135°
2026-05-08 09:53 45.75280 12.81690 37071 ft 498 kts 135°
2026-05-08 09:54 45.70806 12.89257 37067 ft 498 kts 135°
2026-05-08 09:54 45.66322 12.96819 37052 ft 498 kts 135°
2026-05-08 09:55 45.61840 13.04359 37060 ft 497 kts 135°
2026-05-08 09:55 45.57361 13.11871 37063 ft 496 kts 135°
2026-05-08 09:56 45.52893 13.19346 37047 ft 495 kts 135°
2026-05-08 09:56 45.48418 13.26810 37040 ft 494 kts 135°
2026-05-08 09:57 45.41745 13.37906 37038 ft 494 kts 135°
2026-05-08 09:57 45.37270 13.45322 37038 ft 494 kts 135°
2026-05-08 09:58 45.32791 13.52725 37047 ft 494 kts 135°
2026-05-08 09:58 45.28305 13.60121 37048 ft 494 kts 135°
2026-05-08 09:59 45.23812 13.67510 37058 ft 494 kts 135°
2026-05-08 09:59 45.19314 13.74885 37059 ft 494 kts 135°
2026-05-08 10:00 45.14811 13.82250 37060 ft 494 kts 135°
2026-05-08 10:00 45.10305 13.89601 37057 ft 494 kts 135°
2026-05-08 10:01 45.06558 13.95698 37052 ft 494 kts 136°
2026-05-08 10:01 45.02046 14.03024 37048 ft 494 kts 136°
2026-05-08 10:02 44.97537 14.10325 37046 ft 493 kts 136°
2026-05-08 10:02 44.93021 14.17617 37045 ft 493 kts 136°
2026-05-08 10:03 44.88505 14.24892 37058 ft 492 kts 136°
2026-05-08 10:03 44.83996 14.32138 37058 ft 491 kts 136°
2026-05-08 10:04 44.79487 14.39363 37044 ft 491 kts 136°
2026-05-08 10:04 44.74982 14.46564 37051 ft 490 kts 136°
2026-05-08 10:05 44.70477 14.53745 37043 ft 489 kts 136°
2026-05-08 10:05 44.65974 14.60907 37043 ft 489 kts 136°
2026-05-08 10:06 44.61469 14.68051 37045 ft 488 kts 136°